SR7U-1 Weather Reports


Display with metric or nautical units.
time (UTC)temp
F
wind
direction
speed
MPH
gust
MPH
rain 1hr
in
rain 24hr
in
rain mn
in
humidity
%
barometer
mb
20260508022543 51 0.0 0.0 0.00 0.00 0.00 98 1014.2
20260508021159 51 0.0 0.0 0.00 0.00 0.00 98 1014.2
20260508015929 51 0.0 0.0 0.00 0.00 0.00 98 1014.2
20260508014633 51 0.0 0.0 0.00 0.00 0.00 98 1014.2
20260508013330 51 0.0 0.0 0.00 0.00 0.00 98 1014.1
20260508011909 52 0.0 0.0 0.00 0.00 0.00 98 1014.1
20260508010445 52 0.0 0.0 0.00 0.00 0.00 98 1014.2
20260508005037 51 0.0 0.0 0.00 0.00 0.00 98 1014.1
20260508003709 51 0.0 0.0 0.00 0.00 0.00 97 1014.1
20260508002457 51 0.0 0.0 0.00 0.00 0.00 97 1014.0
20260508001220 51 0.0 0.0 0.00 0.00 0.00 97 1014.0
20260508000017 51 0.0 0.0 0.00 0.00 0.00 97 1014.2
20260507234524 52 0.0 0.0 0.00 0.00 0.00 97 1014.1
20260507233322 52 0.0 0.0 0.00 0.00 0.00 97 1014.1
20260507231854 51 0.0 0.0 0.00 0.00 0.00 97 1014.1
20260507230450 52 0.0 0.0 0.00 0.00 0.00 97 1014.3
20260507225015 52 0.0 0.0 0.00 0.00 0.00 96 1014.2
20260507223714 52 0.0 0.0 0.00 0.00 0.00 96 1014.3
20260507222357 52 0.0 0.0 0.00 0.00 0.00 96 1014.3
20260507221104 52 0.0 0.0 0.00 0.00 0.00 95 1014.0
20260507215609 52 0.0 0.0 0.00 0.00 0.00 95 1014.2
20260507214407 52 0.0 0.0 0.00 0.00 0.00 94 1014.1
20260507213015 53 0.0 0.0 0.00 0.00 0.00 92 1013.7
20260507211655 52 0.0 0.0 0.00 0.00 0.00 92 1013.5
20260507210424 52 0.0 0.0 0.00 0.00 0.00 92 1013.4
20260507205005 52 0.0 0.0 0.00 0.00 0.00 93 1013.3
20260507203615 52 0.0 0.0 0.00 0.00 0.00 95 1013.6
20260507202337 52 0.0 0.0 0.00 0.00 0.00 95 1013.7
20260507201129 52 0.0 0.0 0.00 0.00 0.00 94 1013.7
20260507195729 52 0.0 0.0 0.00 0.00 0.00 93 1013.7
20260507194337 53 0.0 0.0 0.00 0.00 0.00 92 1013.5
20260507193137 53 0.0 0.0 0.00 0.00 0.00 88 1013.5
20260507191737 53 0.0 0.0 0.00 0.00 0.00 90 1013.5
20260507190404 53 0.0 0.0 0.00 0.00 0.00 88 1013.3
20260507185024 53 0.0 0.0 0.00 0.00 0.00 87 1013.0
20260507183724 53 0.0 0.0 0.00 0.00 0.00 90 1012.9
20260507182354 53 0.0 0.0 0.00 0.00 0.00 90 1012.5
20260507181140 53 0.0 0.0 0.00 0.00 0.00 91 1012.5
20260507175925 53 0.0 0.0 0.00 0.00 0.00 91 1012.3
20260507174611 53 0.0 0.0 0.00 0.00 0.00 92 1012.4
20260507173210 52 0.0 0.0 0.00 0.00 0.00 92 1012.5
20260507171856 52 0.0 0.0 0.00 0.00 0.00 92 1012.9
20260507170609 53 0.0 0.0 0.00 0.00 0.00 88 1012.8
20260507165205 59 0.0 0.0 0.00 0.00 0.00 88 1011.5
20260507163757 59 0.0 0.0 0.00 0.00 0.00 83 1010.9
20260507162419 61 0.0 0.0 0.00 0.00 0.00 79 1010.8
20260507160959 64 0.0 0.0 0.00 0.00 0.00 70 1010.9
20260507155745 64 0.0 0.0 0.00 0.00 0.00 67 1010.9
20260507154337 65 0.0 0.0 0.00 0.00 0.00 66 1010.8
20260507152956 65 0.0 0.0 0.00 0.00 0.00 65 1010.8
20260507151519 65 0.0 0.0 0.00 0.00 0.00 64 1011.0
20260507150034 65 0.0 0.0 0.00 0.00 0.00 65 1010.7
20260507144834 65 0.0 0.0 0.00 0.00 0.00 64 1010.8
20260507143444 65 0.0 0.0 0.00 0.00 0.00 64 1010.8
20260507142004 66 0.0 0.0 0.00 0.00 0.00 63 1010.9
20260507140609 66 0.0 0.0 0.00 0.00 0.00 64 1010.8
20260507135156 66 0.0 0.0 0.00 0.00 0.00 64 1010.8
20260507133833 66 0.0 0.0 0.00 0.00 0.00 66 1010.8
20260507132545 65 0.0 0.0 0.00 0.00 0.00 65 1010.9
20260507131146 65 0.0 0.0 0.00 0.00 0.00 69 1011.0
20260507125734 65 0.0 0.0 0.00 0.00 0.00 68 1010.8
20260507124411 65 0.0 0.0 0.00 0.00 0.00 67 1010.9
20260507123142 65 0.0 0.0 0.00 0.00 0.00 68 1010.8
20260507121835 65 0.0 0.0 0.00 0.00 0.00 67 1010.8
20260507120334 65 0.0 0.0 0.00 0.00 0.00 69 1010.9
20260507114854 66 0.0 0.0 0.00 0.00 0.00 65 1010.7
20260507113535 66 0.0 0.0 0.00 0.00 0.00 65 1010.7
20260507112110 66 0.0 0.0 0.00 0.00 0.00 66 1010.6
20260507110656 65 0.0 0.0 0.00 0.00 0.00 66 1010.6
20260507105248 65 0.0 0.0 0.00 0.00 0.00 66 1010.4
20260507103804 65 0.0 0.0 0.00 0.00 0.00 66 1010.3
20260507102459 65 0.0 0.0 0.00 0.00 0.00 66 1010.2
20260507101205 65 0.0 0.0 0.00 0.00 0.00 65 1010.2
20260507095913 65 0.0 0.0 0.00 0.00 0.00 64 1009.9
20260507094509 66 0.0 0.0 0.00 0.00 0.00 61 1009.8
20260507093127 66 0.0 0.0 0.00 0.00 0.00 62 1009.6
20260507091759 66 0.0 0.0 0.00 0.00 0.00 60 1009.4
20260507090323 66 0.0 0.0 0.00 0.00 0.00 61 1009.3
20260507085124 66 0.0 0.0 0.00 0.00 0.00 60 1009.1
20260507083924 67 0.0 0.0 0.00 0.00 0.00 57 1008.9
20260507082640 67 0.0 0.0 0.00 0.00 0.00 59 1008.8
20260507081149 67 0.0 0.0 0.00 0.00 0.00 58 1008.8
20260507075914 67 0.0 0.0 0.00 0.00 0.00 59 1008.4
20260507074440 66 0.0 0.0 0.00 0.00 0.00 61 1008.5
20260507073045 66 0.0 0.0 0.00 0.00 0.00 61 1008.4
20260507071704 66 0.0 0.0 0.00 0.00 0.00 62 1008.4
20260507070451 65 0.0 0.0 0.00 0.00 0.00 62 1008.2
20260507065209 65 0.0 0.0 0.00 0.00 0.00 59 1008.0
20260507063844 65 0.0 0.0 0.00 0.00 0.00 59 1008.0
20260507062404 64 0.0 0.0 0.00 0.00 0.00 61 1007.9
20260507060935 64 0.0 0.0 0.00 0.00 0.00 60 1007.8
20260507055700 64 0.0 0.0 0.00 0.00 0.00 62 1007.8
20260507054419 63 0.0 0.0 0.00 0.00 0.00 62 1007.7
20260507053134 62 0.0 0.0 0.00 0.00 0.00 63 1007.6
20260507051845 62 0.0 0.0 0.00 0.00 0.00 64 1007.6
20260507050635 60 0.0 0.0 0.00 0.00 0.00 66 1007.5
20260507045334 60 0.0 0.0 0.00 0.00 0.00 67 1007.6
20260507043959 60 0.0 0.0 0.00 0.00 0.00 67 1007.4
20260507042559 61 0.0 0.0 0.00 0.00 0.00 66 1007.3
20260507041229 60 0.0 0.0 0.00 0.00 0.00 66 1007.2
20260507035930 58 0.0 0.0 0.00 0.00 0.00 73 1007.3
20260507034728 56 0.0 0.0 0.00 0.00 0.00 80 1007.2
20260507033345 56 0.0 0.0 0.00 0.00 0.00 81 1007.2
20260507032024 55 0.0 0.0 0.00 0.00 0.00 85 1007.1
20260507030548 55 0.0 0.0 0.00 0.00 0.00 84 1007.1
20260507025200 56 0.0 0.0 0.00 0.00 0.00 81 1006.9
20260507023814 58 0.0 0.0 0.00 0.00 0.00 76 1006.7